User: anonymous   Login
Location: Lawrence Hall of Science
(37.8785°N, 122.2415°W)
Time: 17:34:53
(UTC-07:00)
Language:

Cosmos 2098 Rocket - Orbit

View from above orbital plane
View from above orbital plane
View from above satellite
View from above satellite

Ground track
Ground track

The orbit data is extracted from the following two-line orbital elements,

1 20775U 90078B   15116.67815713  .00007429  00000-0  39340-3 0  9991
2 20775 082.9323 326.7177 0616607 222.2812 202.6294 14.23613389237117
Epoch (UTC): 26 April 2015 16:16:32
Eccentricity: 0.0616607
inclination: 82.9323°
perigee height: 370 km
apogee height: 1256 km
right ascension of ascending node: 326.7177°
argument of perigee: 222.2812°
revolutions per day: 14.23613389
mean anomaly at epoch: 202.6294°
orbit number at epoch: 23711

The dashed part of the orbit path shows where the satellite is in the earth's shadow,  

DLR